SCP
0 0 0 0 0 0 0 0 0 0 0 0 0 0 0 0 0 0 0 0 0 0 0 0 0 0 0 0 0 0 0 0 0 0 0 0 0 0 0 0 0 0 0
0 0 0 0 0 0 0 0 0 0 0 0 0 0 0 0 0 0 0 0 0 0 0 0 0 0 0 0 0 0 0 0 0 0 0 0 0 0 0 0 0 0 0
0 0 0 0 0 0 0 0 0 0 0 0 0 0 0 0 0 0 0 0 0 0 0 0 0 0 0 0 0 0 0 0 0 0 0 0 0 0 0 0 0 0 0
0 0 0 0 0 0 0 0 0 0 0 0 0 0 0 0 0 0 0 0 0 0 0 0 0 0 0 0 0 0 0 0 0 0 0 0 0 0 0 0 0 0 0
0 0 0 0 0 0 0 0 0 0 0 0 0 0 0 0 0 0 0 0 0 0 0 0 0 0 0 0 0 0 0 0 0 0 0 0 0 0 0 0 0 0 -0
0 0 0 0 0 0 0 0 0 0 0 0 0 0 0 0 0 0 0 0 0 0 0 0 0 0 0 0 0 0 0 0 0 0 0 0 0 0 0 0 0 0 0
0 0 0 0 0 0 0 0 0 0 0 0 0 0 0 0 0 0 0 0 0 0 0 0 0 0 0 0 0 0 0 0 0 0 0 0 0 0 0 0 0 0 0
0 0 0 0 0 0 0 0 0 0 0 0 0 0 0 0 0 0 0 0 0 0 0 0 0 0 -0 0 0 0 0 0 0 0 0 0 0 0 0 0 0 0 0
0 0 0 0 0 0 0 0 0 0 0 0 0 0 0 0 0 0 0 0 0 0 -0 -0 -0 -0 0 0 0 0 0 0 0 0 0 0 0 0 0 0 0 0 0
0 0 0 0 0 0 0 0 0 0 0 0 0 0 0 0 0 0 0 0 0 0 0 0 0 0 0 0 0 0 0 0 -0 0 0 0 0 0 0 0 0 0 0
0 0 0 0 0 0 0 0 0 0 0 0 0 0 0 0 0 0 0 0 -0 -0 -0 -0 -0 -0 0 0 0 0 0 0 0 0 0 0 0 0 0 0 0 0 0
0 0 0 0 0 0 0 0 0 0 0 0 0 0 0 0 0 0 0 0 0 0 -0 -0 -0 -0 -0 -0 -0 0 0 0 0 0 0 0 -0 -0 -0 0 0 0 0
0 0 0 0 0 0 0 0 0 0 0 0 0 0 0 0 0 0 0 0 0 -0 -0 -0 -0 -0 -0 -0 -0 0 0 0 0 0 0 0 0 0 0 0 0 0 0
0 0 0 0 0 0 0 0 0 0 0 0 0 0 0 0 0 0 0 0 0 -0 -0 -0 0 0 0 0 0 0 0 0 0 0 0 0 0 0 0 0 0 0 0
0 0 0 0 0 0 0 0 0 0 0 0 0 0 0 0 0 0 0 0 0 -0 0 0 0 0 -0 -0 0 0 0 0 0 0 0 0 0 0 0 0 -0 0 0
0 0 0 0 0 0 0 0 0 0 0 0 0 0 0 0 0 0 0 0 0 0 0 0 0 0 0 0 0 0 0 0 0 0 0 0 0 0 0 0 0 0 0
0 0 0 0 0 0 0 0 0 0 0 0 0 0 0 0 0 0 0 0 0 0 0 0 0 0 0 0 0 0 0 0 0 0 0 0 0 0 0 0 0 0 0
0 0 0 0 0 0 0 0 0 0 0 0 0 0 0 0 0 0 0 0 0 0 0 0 0 0 0 0 0 0 0 0 0 0 0 0 0 0 0 0 0 0 0
0 0 0 0 0 0 0 0 0 0 0 0 0 0 0 0 0 0 0 0 0 0 0 0 0 0 0 0 0 0 0 0 0 0 0 0 0 0 0 0 0 0 0
0 0 0 0 0 0 0 0 0 0 0 0 0 0 0 0 0 0 0 0 0 0 0 0 0 0 0 0 0 0 0 0 0 0 0 0 0 0 0 0 0 0 0
0 0 0 0 0 0 0 0 0 0 0 0 0 0 0 0 0 0 0 0 0 0 0 0 0 0 0 0 0 0 0 0 0 0 0 0 0 0 0 0 0 0 0
0 0 0 0 0 0 0 0 0 0 0 0 0 0 0 0 0 0 0 0 0 0 0 0 0 0 0 0 0 0 0 0 0 0 0 0 0 0 0 0 0 0 0
0 0 0 0 0 0 0 0 0 0 0 0 0 0 0 0 0 0 0 0 0 0 0 0 0 0 0 0 0 0 0 0 0 0 0 0 0 0 0 0 0 0 0
0 0 0 0 0 0 0 0 0 0 0 0 0 0 0 0 0 0 0 0 0 0 0 0 0 0 0 0 0 0 0 0 0 0 0 0 0 0 0 0 0 0 0
0 0 0 0 0 0 0 0 0 0 0 0 0 0 0 0 0 0 0 0 0 0 0 0 0 0 0 0 0 0 0 0 0 0 0 0 0 0 0 0 0 0 0
0 0 0 0 0 0 0 0 0 0 0 0 0 0 0 0 0 0 0 0 0 0 0 0 0 0 0 0 0 0 0 0 0 0 0 0 0 0 0 -0 0 0 0
Wind_Speed_500mb
25 26 25 21 19 16 13 11 8 6 4 7 10 14 16 19 22 25 29 35 36 40 39 47 50 48 48 42 43 51 63 63 73 95 82 83 84 84 84 85 78 78 83
25 25 24 23 22 19 15 11 8 7 8 12 18 24 29 31 33 36 37 40 45 47 48 51 53 54 54 53 54 53 53 44 49 73 85 87 86 84 80 82 85 85 87
31 29 27 24 21 17 12 10 11 14 16 18 20 23 26 32 36 36 38 39 39 42 43 45 50 52 55 59 61 64 68 73 71 74 93 86 86 79 73 73 79 84 82
33 30 25 21 18 17 16 15 15 17 19 19 19 21 24 27 27 31 33 37 40 39 40 40 42 42 45 47 50 55 60 68 73 80 92 105 107 107 99 98 108 106 114
30 26 21 17 14 12 11 12 8 10 13 14 15 20 22 28 33 37 38 38 43 46 46 43 45 46 45 46 48 50 52 59 63 69 78 85 93 95 87 86 91 100 112
33 28 24 18 12 7 4 6 10 12 13 15 17 19 23 26 30 36 41 42 45 50 51 50 51 54 54 57 57 57 59 62 67 65 71 81 85 82 85 83 82 83 104
30 25 20 15 12 8 6 7 10 12 12 14 17 20 23 28 33 39 44 48 51 53 57 61 63 64 65 68 70 72 70 67 65 64 76 81 85 70 68 70 70 78 98
29 24 20 18 13 12 13 10 12 15 18 20 23 27 29 34 40 45 49 50 53 57 62 65 67 71 72 71 75 83 85 86 82 78 80 88 85 82 69 72 82 91 112
29 25 19 17 14 14 13 9 16 22 25 26 27 29 33 35 39 44 50 55 60 64 67 71 73 75 74 71 78 89 95 96 91 92 95 98 96 94 89 88 97 94 118
33 26 19 15 14 16 17 15 18 21 22 19 18 20 24 30 33 39 46 53 58 64 70 73 75 75 70 62 67 80 99 102 97 100 103 105 102 100 94 83 89 87 89
30 24 19 18 17 17 18 17 16 17 16 17 20 24 31 36 41 45 48 50 57 64 72 78 79 76 65 70 69 75 80 87 93 94 102 102 97 92 84 73 75 76 81
27 21 14 12 19 19 14 12 11 14 20 23 27 31 34 38 42 46 49 49 50 62 68 74 78 68 71 67 65 67 72 74 83 85 77 79 78 77 77 74 75 77 82
23 20 21 20 13 8 10 11 14 18 22 28 33 37 39 42 46 50 53 53 54 55 66 66 66 67 65 77 71 64 65 74 73 81 88 87 80 88 98 94 79 72 95
18 16 15 13 10 9 10 11 13 18 23 28 33 38 42 44 47 52 56 61 62 65 69 75 77 78 73 77 79 76 75 73 73 76 82 89 92 93 94 89 93 99 96
24 21 16 13 11 8 8 9 14 19 26 31 36 40 44 46 44 43 47 54 57 59 66 74 75 76 77 76 78 77 76 76 77 76 81 87 91 93 97 92 75 85 97
20 17 15 12 9 7 7 9 15 19 22 25 29 35 38 40 41 43 45 47 50 53 65 71 72 71 72 74 76 78 77 78 76 75 78 80 88 94 96 96 93 82 81
18 15 12 9 7 9 13 16 16 18 20 24 27 32 37 43 44 45 45 47 53 58 60 64 66 67 70 71 74 77 82 79 77 76 77 81 84 89 92 96 94 86 92
15 12 9 8 9 11 15 19 23 24 24 24 29 35 40 43 44 45 48 55 58 55 58 63 67 69 70 73 75 80 82 82 81 81 82 83 85 89 93 93 96 94 92
13 10 9 10 12 15 18 21 25 29 33 33 31 31 42 44 46 47 48 53 59 61 63 64 64 68 73 76 77 78 79 80 82 85 85 86 89 89 93 95 100 101 98
11 10 11 12 14 17 20 24 29 33 36 40 41 44 48 52 54 55 53 54 56 58 60 63 64 67 71 73 73 75 77 80 85 87 88 90 94 94 98 101 104 104 105
11 11 12 14 18 21 24 27 32 37 40 42 43 43 47 54 58 57 58 57 58 60 63 65 67 69 71 70 73 75 77 81 85 89 91 94 97 105 108 109 108 110 108
13 14 16 20 21 24 28 31 34 39 43 47 48 47 47 52 55 57 58 60 61 62 63 67 69 69 69 69 72 76 80 83 85 88 92 93 101 112 111 112 113 96 105
16 18 21 23 26 28 32 35 39 42 47 50 53 56 55 57 59 60 62 62 64 65 65 67 70 71 68 66 68 73 77 78 83 82 90 95 110 118 118 113 101 109 106
21 22 24 27 31 34 36 38 41 45 49 52 54 56 57 60 63 64 64 65 67 68 68 69 71 71 70 69 69 69 70 76 76 80 80 94 109 115 117 96 106 108 109
25 26 28 31 34 37 40 42 45 47 50 53 56 58 60 62 65 66 66 67 69 71 71 71 71 72 71 70 71 69 68 71 68 72 73 90 107 110 111 97 108 115 108
29 31 32 33 36 39 43 46 48 50 53 55 58 60 62 64 65 67 68 69 71 72 73 74 74 73 72 71 70 69 67 68 70 64 69 91 100 106 107 97 111 114 104
Wind_Direction_500mb
199 196 204 199 196 195 194 196 200 213 253 278 282 281 284 287 287 286 287 286 283 280 279 273 270 272 266 272 286 287 285 281 284 287 288 289 290 290 291 288 291 292 293
182 174 167 166 165 166 168 175 191 223 258 281 292 296 295 295 293 292 293 292 291 288 287 285 285 281 276 274 268 266 270 277 279 282 287 288 289 288 291 294 297 294 291
174 173 175 176 178 185 198 224 249 265 278 289 294 294 298 298 298 300 304 308 310 308 307 305 300 294 289 285 283 279 274 271 271 272 275 277 280 286 292 296 295 296 294
188 188 189 193 202 214 224 235 253 274 290 300 307 313 314 313 314 311 316 325 327 328 325 323 321 315 312 306 299 293 289 284 281 277 275 278 279 281 281 283 285 284 286
200 200 206 211 221 236 262 274 287 303 308 322 331 333 332 328 330 329 330 331 328 329 330 330 325 323 320 315 312 308 304 299 296 294 291 288 288 293 294 291 285 286 286
206 209 216 214 210 216 250 334 315 313 324 328 328 326 326 323 319 320 322 327 328 326 325 323 321 319 318 316 314 311 308 306 301 298 297 294 295 298 299 298 297 295 291
213 211 208 211 216 226 254 280 301 303 302 304 313 319 324 322 321 321 321 323 322 319 317 317 316 315 314 311 309 306 304 301 298 296 294 295 296 299 299 298 295 286 279
205 201 197 215 225 238 244 258 294 308 314 317 321 324 326 327 328 331 329 328 327 325 324 323 320 319 319 317 312 308 305 305 306 302 296 294 292 290 287 289 289 289 285
200 198 200 216 227 244 264 284 304 313 314 317 324 329 331 337 339 337 333 331 330 329 327 325 323 321 320 319 317 312 308 305 306 304 301 298 297 296 295 293 286 287 289
197 202 211 223 242 261 278 287 293 302 305 314 325 329 330 330 333 331 331 329 328 327 327 325 323 321 321 324 319 312 307 310 314 310 305 302 302 300 300 293 293 287 285
206 209 213 224 244 266 278 286 294 300 305 320 336 338 340 340 341 340 341 336 332 328 327 326 324 325 323 318 316 311 310 311 307 306 307 308 308 306 303 295 290 284 273
193 195 221 257 262 265 276 295 309 318 326 337 343 343 342 341 339 339 336 334 332 326 327 324 325 323 319 319 313 311 312 310 311 314 311 308 308 305 302 296 290 281 274
211 230 239 243 262 283 295 313 322 324 330 338 340 340 339 340 338 336 334 336 332 327 323 323 319 321 319 319 324 319 316 319 318 313 312 312 311 300 291 286 283 292 288
208 231 248 250 250 260 282 300 317 326 330 335 335 334 335 337 337 337 338 334 331 330 332 325 322 321 322 321 322 325 327 326 324 321 318 315 313 312 310 304 300 300 286
221 221 222 231 243 259 279 315 329 334 339 341 339 339 336 339 340 336 331 331 330 330 320 319 323 324 324 327 327 328 329 329 328 327 325 323 321 319 315 315 308 296 295
212 209 214 227 241 268 302 325 332 335 339 340 339 338 337 338 340 336 333 330 330 326 324 326 324 325 325 326 327 327 328 329 330 328 326 325 322 321 318 315 310 305 297
213 218 224 236 266 301 316 321 324 329 336 341 340 337 337 341 342 342 338 335 332 331 327 324 324 324 324 326 328 329 328 329 329 327 325 324 323 322 321 316 310 302 301
214 220 234 259 283 301 309 321 327 330 334 342 343 336 334 334 337 341 344 337 336 338 333 330 328 324 323 323 325 326 327 328 328 327 324 323 324 320 315 308 304 300 299
214 226 251 279 297 313 324 324 325 330 332 335 334 329 326 330 335 342 342 337 335 337 336 332 328 323 323 322 321 322 324 326 328 328 325 323 324 316 308 303 301 298 295
227 246 266 290 307 313 317 320 320 324 327 328 332 332 330 327 336 338 337 334 332 332 332 329 328 325 324 322 321 321 321 325 328 328 326 324 324 318 309 303 301 297 294
243 264 281 288 300 307 310 316 321 322 321 322 327 328 328 326 327 327 327 329 329 329 329 327 327 327 327 326 324 322 320 320 324 326 326 325 324 319 320 311 301 298 293
256 276 287 293 301 307 314 317 317 317 317 318 321 323 321 317 318 320 323 325 324 325 325 324 324 325 328 326 327 325 322 320 321 324 323 324 328 326 315 308 305 304 305
268 276 289 298 305 310 312 312 313 314 316 317 318 316 318 318 319 320 322 323 322 321 321 321 322 324 326 326 324 325 324 325 324 321 323 328 331 325 317 308 310 310 308
275 287 295 302 304 304 307 312 314 313 313 314 315 316 319 320 321 321 321 321 319 318 319 319 320 322 323 324 324 326 324 325 323 322 326 329 329 320 313 307 315 313 310
279 287 295 297 299 305 309 310 311 313 313 313 315 318 321 322 321 322 322 320 318 317 318 319 318 320 321 321 324 325 322 325 322 318 326 331 321 320 318 312 319 319 315
282 287 290 295 300 304 307 308 310 311 313 315 317 320 321 321 321 320 320 320 319 318 318 317 318 318 319 318 322 323 325 329 331 328 332 331 324 331 327 321 325 325 322
Wind_Speed_850mb
25 26 25 21 19 16 13 11 8 6 4 7 10 14 16 19 22 25 29 35 36 40 39 47 50 48 48 42 43 51 63 63 73 95 82 83 84 84 84 85 78 78 83
25 25 24 23 22 19 15 11 8 7 8 12 18 24 29 31 33 36 37 40 45 47 48 51 53 54 54 53 54 53 53 44 49 73 85 87 86 84 80 82 85 85 87
31 29 27 24 21 17 12 10 11 14 16 18 20 23 26 32 36 36 38 39 39 42 43 45 50 52 55 59 61 64 68 73 71 74 93 86 86 79 73 73 79 84 82
33 30 25 21 18 17 16 15 15 17 19 19 19 21 24 27 27 31 33 37 40 39 40 40 42 42 45 47 50 55 60 68 73 80 92 105 107 107 99 98 108 106 114
30 26 21 17 14 12 11 12 8 10 13 14 15 20 22 28 33 37 38 38 43 46 46 43 45 46 45 46 48 50 52 59 63 69 78 85 93 95 87 86 91 100 112
33 28 24 18 12 7 4 6 10 12 13 15 17 19 23 26 30 36 41 42 45 50 51 50 51 54 54 57 57 57 59 62 67 65 71 81 85 82 85 83 82 83 104
30 25 20 15 12 8 6 7 10 12 12 14 17 20 23 28 33 39 44 48 51 53 57 61 63 64 65 68 70 72 70 67 65 64 76 81 85 70 68 70 70 78 98
29 24 20 18 13 12 13 10 12 15 18 20 23 27 29 34 40 45 49 50 53 57 62 65 67 71 72 71 75 83 85 86 82 78 80 88 85 82 69 72 82 91 112
29 25 19 17 14 14 13 9 16 22 25 26 27 29 33 35 39 44 50 55 60 64 67 71 73 75 74 71 78 89 95 96 91 92 95 98 96 94 89 88 97 94 118
33 26 19 15 14 16 17 15 18 21 22 19 18 20 24 30 33 39 46 53 58 64 70 73 75 75 70 62 67 80 99 102 97 100 103 105 102 100 94 83 89 87 89
30 24 19 18 17 17 18 17 16 17 16 17 20 24 31 36 41 45 48 50 57 64 72 78 79 76 65 70 69 75 80 87 93 94 102 102 97 92 84 73 75 76 81
27 21 14 12 19 19 14 12 11 14 20 23 27 31 34 38 42 46 49 49 50 62 68 74 78 68 71 67 65 67 72 74 83 85 77 79 78 77 77 74 75 77 82
23 20 21 20 13 8 10 11 14 18 22 28 33 37 39 42 46 50 53 53 54 55 66 66 66 67 65 77 71 64 65 74 73 81 88 87 80 88 98 94 79 72 95
18 16 15 13 10 9 10 11 13 18 23 28 33 38 42 44 47 52 56 61 62 65 69 75 77 78 73 77 79 76 75 73 73 76 82 89 92 93 94 89 93 99 96
24 21 16 13 11 8 8 9 14 19 26 31 36 40 44 46 44 43 47 54 57 59 66 74 75 76 77 76 78 77 76 76 77 76 81 87 91 93 97 92 75 85 97
20 17 15 12 9 7 7 9 15 19 22 25 29 35 38 40 41 43 45 47 50 53 65 71 72 71 72 74 76 78 77 78 76 75 78 80 88 94 96 96 93 82 81
18 15 12 9 7 9 13 16 16 18 20 24 27 32 37 43 44 45 45 47 53 58 60 64 66 67 70 71 74 77 82 79 77 76 77 81 84 89 92 96 94 86 92
15 12 9 8 9 11 15 19 23 24 24 24 29 35 40 43 44 45 48 55 58 55 58 63 67 69 70 73 75 80 82 82 81 81 82 83 85 89 93 93 96 94 92
13 10 9 10 12 15 18 21 25 29 33 33 31 31 42 44 46 47 48 53 59 61 63 64 64 68 73 76 77 78 79 80 82 85 85 86 89 89 93 95 100 101 98
11 10 11 12 14 17 20 24 29 33 36 40 41 44 48 52 54 55 53 54 56 58 60 63 64 67 71 73 73 75 77 80 85 87 88 90 94 94 98 101 104 104 105
11 11 12 14 18 21 24 27 32 37 40 42 43 43 47 54 58 57 58 57 58 60 63 65 67 69 71 70 73 75 77 81 85 89 91 94 97 105 108 109 108 110 108
13 14 16 20 21 24 28 31 34 39 43 47 48 47 47 52 55 57 58 60 61 62 63 67 69 69 69 69 72 76 80 83 85 88 92 93 101 112 111 112 113 96 105
16 18 21 23 26 28 32 35 39 42 47 50 53 56 55 57 59 60 62 62 64 65 65 67 70 71 68 66 68 73 77 78 83 82 90 95 110 118 118 113 101 109 106
21 22 24 27 31 34 36 38 41 45 49 52 54 56 57 60 63 64 64 65 67 68 68 69 71 71 70 69 69 69 70 76 76 80 80 94 109 115 117 96 106 108 109
25 26 28 31 34 37 40 42 45 47 50 53 56 58 60 62 65 66 66 67 69 71 71 71 71 72 71 70 71 69 68 71 68 72 73 90 107 110 111 97 108 115 108
29 31 32 33 36 39 43 46 48 50 53 55 58 60 62 64 65 67 68 69 71 72 73 74 74 73 72 71 70 69 67 68 70 64 69 91 100 106 107 97 111 114 104
Wind_Direction_850mb
199 196 204 199 196 195 194 196 200 213 253 278 282 281 284 287 287 286 287 286 283 280 279 273 270 272 266 272 286 287 285 281 284 287 288 289 290 290 291 288 291 292 293
182 174 167 166 165 166 168 175 191 223 258 281 292 296 295 295 293 292 293 292 291 288 287 285 285 281 276 274 268 266 270 277 279 282 287 288 289 288 291 294 297 294 291
174 173 175 176 178 185 198 224 249 265 278 289 294 294 298 298 298 300 304 308 310 308 307 305 300 294 289 285 283 279 274 271 271 272 275 277 280 286 292 296 295 296 294
188 188 189 193 202 214 224 235 253 274 290 300 307 313 314 313 314 311 316 325 327 328 325 323 321 315 312 306 299 293 289 284 281 277 275 278 279 281 281 283 285 284 286
200 200 206 211 221 236 262 274 287 303 308 322 331 333 332 328 330 329 330 331 328 329 330 330 325 323 320 315 312 308 304 299 296 294 291 288 288 293 294 291 285 286 286
206 209 216 214 210 216 250 334 315 313 324 328 328 326 326 323 319 320 322 327 328 326 325 323 321 319 318 316 314 311 308 306 301 298 297 294 295 298 299 298 297 295 291
213 211 208 211 216 226 254 280 301 303 302 304 313 319 324 322 321 321 321 323 322 319 317 317 316 315 314 311 309 306 304 301 298 296 294 295 296 299 299 298 295 286 279
205 201 197 215 225 238 244 258 294 308 314 317 321 324 326 327 328 331 329 328 327 325 324 323 320 319 319 317 312 308 305 305 306 302 296 294 292 290 287 289 289 289 285
200 198 200 216 227 244 264 284 304 313 314 317 324 329 331 337 339 337 333 331 330 329 327 325 323 321 320 319 317 312 308 305 306 304 301 298 297 296 295 293 286 287 289
197 202 211 223 242 261 278 287 293 302 305 314 325 329 330 330 333 331 331 329 328 327 327 325 323 321 321 324 319 312 307 310 314 310 305 302 302 300 300 293 293 287 285
206 209 213 224 244 266 278 286 294 300 305 320 336 338 340 340 341 340 341 336 332 328 327 326 324 325 323 318 316 311 310 311 307 306 307 308 308 306 303 295 290 284 273
193 195 221 257 262 265 276 295 309 318 326 337 343 343 342 341 339 339 336 334 332 326 327 324 325 323 319 319 313 311 312 310 311 314 311 308 308 305 302 296 290 281 274
211 230 239 243 262 283 295 313 322 324 330 338 340 340 339 340 338 336 334 336 332 327 323 323 319 321 319 319 324 319 316 319 318 313 312 312 311 300 291 286 283 292 288
208 231 248 250 250 260 282 300 317 326 330 335 335 334 335 337 337 337 338 334 331 330 332 325 322 321 322 321 322 325 327 326 324 321 318 315 313 312 310 304 300 300 286
221 221 222 231 243 259 279 315 329 334 339 341 339 339 336 339 340 336 331 331 330 330 320 319 323 324 324 327 327 328 329 329 328 327 325 323 321 319 315 315 308 296 295
212 209 214 227 241 268 302 325 332 335 339 340 339 338 337 338 340 336 333 330 330 326 324 326 324 325 325 326 327 327 328 329 330 328 326 325 322 321 318 315 310 305 297
213 218 224 236 266 301 316 321 324 329 336 341 340 337 337 341 342 342 338 335 332 331 327 324 324 324 324 326 328 329 328 329 329 327 325 324 323 322 321 316 310 302 301
214 220 234 259 283 301 309 321 327 330 334 342 343 336 334 334 337 341 344 337 336 338 333 330 328 324 323 323 325 326 327 328 328 327 324 323 324 320 315 308 304 300 299
214 226 251 279 297 313 324 324 325 330 332 335 334 329 326 330 335 342 342 337 335 337 336 332 328 323 323 322 321 322 324 326 328 328 325 323 324 316 308 303 301 298 295
227 246 266 290 307 313 317 320 320 324 327 328 332 332 330 327 336 338 337 334 332 332 332 329 328 325 324 322 321 321 321 325 328 328 326 324 324 318 309 303 301 297 294
243 264 281 288 300 307 310 316 321 322 321 322 327 328 328 326 327 327 327 329 329 329 329 327 327 327 327 326 324 322 320 320 324 326 326 325 324 319 320 311 301 298 293
256 276 287 293 301 307 314 317 317 317 317 318 321 323 321 317 318 320 323 325 324 325 325 324 324 325 328 326 327 325 322 320 321 324 323 324 328 326 315 308 305 304 305
268 276 289 298 305 310 312 312 313 314 316 317 318 316 318 318 319 320 322 323 322 321 321 321 322 324 326 326 324 325 324 325 324 321 323 328 331 325 317 308 310 310 308
275 287 295 302 304 304 307 312 314 313 313 314 315 316 319 320 321 321 321 321 319 318 319 319 320 322 323 324 324 326 324 325 323 322 326 329 329 320 313 307 315 313 310
279 287 295 297 299 305 309 310 311 313 313 313 315 318 321 322 321 322 322 320 318 317 318 319 318 320 321 321 324 325 322 325 322 318 326 331 321 320 318 312 319 319 315
282 287 290 295 300 304 307 308 310 311 313 315 317 320 321 321 321 320 320 320 319 318 318 317 318 318 319 318 322 323 325 329 331 328 332 331 324 331 327 321 325 325 322